{"data":{"norad_id":61515,"epoch":"2026-09-20T12:55:42.363264Z","epoch_age_seconds":188758,"freshness":"STALE","line1":"1 61515U 24183G   26263.53868476  .00000954  00000+0  42501-4 0  9995","line2":"2 61515  53.1621 316.0608 0001294  77.9736 282.1411 15.31699007109502","mean_motion":15.31699007,"eccentricity":0.0001294,"inclination_deg":53.1621,"raan_deg":316.0608,"arg_perigee_deg":77.9736,"mean_anomaly_deg":282.1411,"bstar":4.2501e-5,"rev_number":10950,"period_min":94.01324890981,"perigee_km":469.85671024236,"apogee_km":471.62920037479,"semimajor_km":6848.8799553086,"source":"CELESTRAK","updated_at":"2026-09-22T09:00:49.355538Z"}}